Regional Weather Roundup
Issued by NWS

Home | Current Version | Previous Version | Graphics & Text | Print | Product List | Glossary On
Versions: 1 2 3 4 5 6 7 8 9 10 11 12 13 14 15 16 17 18 19 20 21 22 23 24 25 26 27 28 29 30 31 32 33 34 35 36 37 38 39 40 41 42 43 44 45 46 47 48 49 50
979
ASUS43 KMPX 241410
RWRMN
WEATHER ROUNDUP FOR MINNESOTA
NATIONAL WEATHER SERVICE TWIN CITIES/CHANHASSEN MN
900 AM CDT SAT SEP 24 2016


NOTE: "FAIR" INDICATES FEW OR NO CLOUDS BELOW 12,000 FEET WITH NO
SIGNIFICANT WEATHER AND/OR OBSTRUCTIONS TO VISIBILITY. N/A MEANS
CURRENT SKY AND/OR WEATHER CONDITIONS ARE NOT AVAILABLE.

MNZ060>063-068>070-241500-
   Twin Cities Metro

CITY           SKY/WX    TMP DP  RH WIND       PRES   REMARKS
TWIN CITIES    CLOUDY    63  60  90 SE13      30.10S FOG
ST PAUL        CLOUDY    63  60  90 SE9       30.11S
CRYSTAL        CLOUDY    63  59  87 SE8       30.08S FOG
BLAINE         CLOUDY    64  63  94 SE10      30.10S FOG
LAKEVILLE      CLOUDY    63  63 100 SE7       30.09F FOG
EDEN PRAIRIE   CLOUDY    65  62  90 SE10      30.08S FOG
LAKEVILLE      CLOUDY    63  63 100 SE7       30.09F FOG
SOUTH ST PAUL  CLOUDY    64  61  91 SE8       30.10F
LAKE ELMO      CLOUDY    63  61  94 SE7       30.13S FOG
$$
MNZ001>005-007-008-013>017-022>024-027-028-241500-
   Northwest Minnesota

CITY           SKY/WX    TMP DP  RH WIND       PRES   REMARKS
BEMIDJI        CLOUDY    59  59  99 SE13      30.02F FOG
HALLOCK        CLOUDY    61  61 100 SE13      29.90S FOG
ROSEAU         CLOUDY    57  52  82 E8        29.97F HAZE
WARROAD        CLOUDY    55  52  88 E10       30.00F FOG
THIEF RVR FALL CLOUDY    63  60  90 SE15      29.94F
CROOKSTON      PTSUNNY   66  63  88 SE14      29.91S
FOSSTON        PTSUNNY   63  61  94 SE15      29.96F
DETROIT LAKES  CLOUDY    63  63 100 SE15      29.97F FOG
MOORHEAD       CLOUDY    68  64  88 SE13G23   29.90F
PARK RAPIDS    CLOUDY    63  60  90 SE16      30.02F FOG
MAHNOMEN       CLOUDY    64  62  90 SE16G26   29.94F
$$
MNZ006-009>011-018-025>026-241500-
   North Central Minnesota

CITY           SKY/WX    TMP DP  RH WIND       PRES   REMARKS
BAUDETTE       CLOUDY    56  55  97 SE14G21   30.02F FOG
FLAG ISLAND    CLOUDY    57  55  94 SE10      30.01F
INTL FALLS     CLOUDY    56  54  93 E7        30.09S
WASKISH        CLOUDY    61  57  88 SE10      30.03F
BIG FORK       CLOUDY    59  55  88 SE8       30.09F
LONGVILLE      CLOUDY    59  59 100 SE7       30.07F FOG
GRAND RAPIDS   CLOUDY    57  56  96 SE12      30.11F
COOK           CLOUDY    57  52  82 SE8       30.13F
WALKER         CLOUDY    60  59  98 SE7       30.04F FOG
$$
MNZ012-019>021-037-241500-
   Northeast Minnesota

CITY           SKY/WX    TMP DP  RH WIND       PRES   REMARKS
DULUTH         LGT RAIN  55  53  93 E13       30.16F
ELY            CLOUDY    57  50  77 SE15      30.16F
HIBBING        CLOUDY    57  51  80 SE14      30.14S
EVELETH        CLOUDY    58  50  76 SE6       30.16S
DULUTH HARBOR  CLOUDY    57  55  94 NE10      30.18S
TWO HARBORS    CLOUDY    61  54  77 E8        30.17F
SILVER BAY     CLOUDY    61  55  82 E5        30.18F
GRAND MARAIS     N/A     59  53  80 E9        30.23S
G MARAIS ARPRT LGT RAIN  52  46  82 E6        30.25S
$$
MNZ029>031-032-039>041-046>048-054>057-064-241500-
   West Central Minnesota

CITY           SKY/WX    TMP DP  RH WIND       PRES   REMARKS
FERGUS FALLS   CLOUDY    66  66 100 SE18G25   29.95S
WHEATON        MOSUNNY   70  66  88 SE17G25   29.93S FOG
MORRIS         PTSUNNY   68  66  94 SE15G21   29.96R FOG
ALEXANDRIA     CLOUDY    65  65 100 SE14      30.01F FOG
ELBOW LAKE     CLOUDY    66  65  94 E17G24    29.95F
GLENWOOD       CLOUDY    64  64 100 SE12G20   30.01F FOG
APPLETON       CLOUDY    70  64  83 SE10G21   29.95R HAZE
BENSON         CLOUDY    68  63  83 S16G23    29.97S HAZE
ORTONVILLE     CLOUDY    68  64  88 SE13G18   29.93S FOG
MADISON          N/A     72  70  94 SE13G21   29.94S FOG
WILLMAR        CLOUDY    66  66 100 SE18      30.01F FOG
$$
MNZ033>034-036-042>043-049>051-058-059-241500-
   Central Minnesota

CITY           SKY/WX    TMP DP  RH WIND       PRES   REMARKS
ST CLOUD       CLOUDY    63  63 100 SE9       30.06F FOG
SAUK CENTRE    CLOUDY    64  64  99 SE12G17   30.03F FOG
PAYNESVILLE    CLOUDY    65  65 100 SE15      30.04F FOG
AITKIN         CLOUDY    61  55  82 SE8       30.09F HAZE
PINE RIVER     CLOUDY    61  61 100 SE10G17   30.09F FOG
BRAINERD       FOG       61  60  97 SE8       30.08S VSB 1
STAPLES        CLOUDY    61  61 100 SE9       30.05S FOG
LONG PRAIRIE   FOG       61  61 100 E7        30.04F VSB 1
LITTLE FALLS   CLOUDY    61  59  94 SE9       30.06S FOG
LITCHFIELD     CLOUDY    66  66 100 SE13      30.04F FOG
BUFFALO        CLOUDY    63  61  93 E9        30.08F FOG
MAPLE LAKE     FOG       64  64  98 SE6       30.07F VSB 1
HUTCHINSON     CLOUDY    66  65  97 SE10G20   30.05F FOG
$$
MNZ037-044-045-052-053-241500-
   East Central Minnesota

CITY           SKY/WX    TMP DP  RH WIND       PRES   REMARKS
PRINCETON      CLOUDY    63  61  94 E9        30.09F FOG
MORA           FOG       55  55 100 SE5       30.14S VSB 1
CAMBRIDGE      CLOUDY    63  57  82 E9        30.09F HAZE
RUSH CITY      CLOUDY    61  57  88 SE3       30.13S
MOOSE LAKE     CLOUDY    57  54  88 SE5       30.12F FOG
HINCKLEY       CLOUDY    59  59 100 E8        30.13S FOG
CLOQUET        CLOUDY    57  52  82 E8G16     30.15F
MCGREGOR       CLOUDY    57  55  94 SE8       30.13S
$$
MNZ071>073-080-081-089-090-097-098-241500-
   Southwest Minnesota

CITY           SKY/WX    TMP DP  RH WIND       PRES   REMARKS
MONTEVIDEO     CLOUDY    70  66  88 S14G24    29.99R
GRANITE FALLS  CLOUDY    71  67  87 SE17      29.99S
CANBY          CLOUDY    69  67  93 E10       29.95S FOG
MARSHALL       CLOUDY    70  66  87 SE17G26   29.97S
REDWOOD FALLS  CLOUDY    68  64  87 SE20G29   29.99F FOG
OLIVIA         CLOUDY    68  64  88 SE18      30.00F FOG
PIPESTONE        N/A     70  64  83 SE16G22   29.96S FOG
WINDOM         PTSUNNY   68  64  88 SE17G23   30.02S
WORTHINGTON    CLOUDY    67  65  93 SE13      30.01S FOG
JACKSON        CLOUDY    68  63  83 SE13G20   30.03F HAZE
TRACY          CLOUDY    69  67  93 SE16      29.99S FOG
SLAYTON        CLOUDY    66  64  94 SE12      30.01R FOG
$$
MNZ065>067-074>077-082>085-091>093-241500-
   South Central Minnesota

CITY           SKY/WX    TMP DP  RH WIND       PRES   REMARKS
MANKATO        CLOUDY    65  63  93 SE14      30.07R
NEW ULM        CLOUDY    66  64  94 SE14G20   30.03F FOG
ST JAMES       CLOUDY    66  64  94 SE12G20   30.05S FOG
FAIRMONT       CLOUDY    68  65  90 SE12      30.05F FOG
GLENCOE        CLOUDY    67  66  97 SE10      30.06S
FARIBAULT      CLOUDY    66  63  88 SE13      30.10S FOG
OWATONNA       CLOUDY    64  63  94 SE15      30.09S FOG
WASECA         CLOUDY    63  61  94 SE16      30.09F FOG
ALBERT LEA     FOG       64  63  94 SE14G20   30.10S VSB 3/4
$$
MNZ078>079-086>088-094>096-241500-
   Southeast Minnesota

CITY           SKY/WX    TMP DP  RH WIND       PRES   REMARKS
ROCHESTER      FOG       63  62  97 SE13      30.14S VSB 3/4
RED WING       CLOUDY    64  61  88 SE10      30.11F FOG
STANTON        CLOUDY    64  61  88 SE8       30.10S FOG
DODGE CENTER   FOG       63  61  94 SE12G17   30.12S VSB 1
WINONA         CLOUDY    63  59  88 SE8       30.16S
AUSTIN         CLOUDY    64  61  88 SE9       30.12S FOG
PRESTON        FOG       62  60  95 SE9       30.15F VSB 1/4
$$
ABBREVIATIONS USED IN REMARKS
   TC - TEMPERATURES IN CELSIUS
  WCI - WIND CHILL INDEX
   HX - HEAT INDEX
  VSB - VISIBILITY
$$




USA.gov is the U.S. government's official web portal to all federal, state and local government web resources and services.